Weather in Tyachev

Ukraine / Zakarpattia District     48°00′42″N   23°34′19″E
temp.,
°C
wind,
m/s
gust,
m/s
humid.,
%
clouds,
%
prec.,
mm/h
press.,
hPa
HPBL,
m
15 april, thu
thu1500:00+1w12100100 1.9 1017150
03:00+1w22100100 3.4 1018110
06:00+1w12100100 0.8 1018111
09:00+1wsw12100100 1.8 1019145
12:00+1wsw22100100 0.9 1019175
15:00+2sw12100100 1.8 1020168
18:00+2sw12100100 0.8 1020197
21:00+2ssw1199100 1.3 1020255
16 april, fri
fri1600:00+1sw1298100 0.1 1019113
03:00+1sw1299100 0.3 1019235
06:00+1wsw22100100 1.4 1019187
09:00+2sw1299100 2.1 1019178
12:00+3sw2495100 0.4 1020436
15:00+4sw248597 0.8 1021750
18:00+5ssw2484100 0.4 1020486
21:00+3s2290100 0.4 102143
17 april, sat
sat1700:00+1se229070 0.0 102111
03:000ese229076 0.0 102213
06:000ese22895 0.0 102113
09:00+4ene12815 0.0 1021227
12:00+8ne126629 0.0 10191000
15:00+11ne225737 0.0 10181349
18:00+11n1257100 0.0 10161131
21:00+6ene2284100 0.0 101711
18 april, sun
sun1800:00+4ene329173 0.0 101735
03:00+3e329264 0.0 101733
06:00+2e3392100 0.0 101737
09:00+6ene3477100 0.0 1016217
12:00+11ene3459100 0.0 1016970
15:00+11ese2457100 0.1 10151372
18:00+10ne2372100 0.1 1015554
21:00+7nne2288100 0.7 101633
19 april, mon
mon1900:00+7e2292100 0.8 101642
03:00+6ene1295100 2.3 1016100
06:00+6ene2296100 0.9 1015126
09:00+6ne2394100 1.1 1015392
12:00+9ne247882 0.0 1013848
15:00+10e4572100 0.1 1012877
18:00+10ene356771 0.0 10111029
21:00+7ene2282100 0.0 101043